KOZAKOV Weather Reports


time (UTC)temp
C
wind
direction
speed
KPH
gust
KPH
rain 1hr
cm
rain 24hr
cm
rain mn
cm
humidity
%
barometer
mb
20260505024017 12 49 20.9 25.7 0.00 0.00 0.00 77
20260505023517 12 49 17.7 20.9 0.00 0.00 0.00 78
20260505023018 12 45 20.9 25.7 0.00 0.00 0.00 78
20260505022516 12 49 17.7 20.9 0.00 0.00 0.00 72
20260505022019 12 42 14.5 17.7 0.00 0.00 0.00 71
20260505021517 12 50 17.7 17.7 0.00 0.00 0.00 72
20260505021018 12 56 17.7 20.9 0.00 0.00 0.00 74
20260505020517 12 56 17.7 20.9 0.00 0.00 0.00 70
20260505020018 13 60 20.9 25.7 0.00 0.00 0.00 67
20260505015517 13 64 20.9 25.7 0.00 0.00 0.00 65
20260505015018 13 47 25.7 29.0 0.00 0.00 0.00 63
20260505014517 13 49 25.7 25.7 0.00 0.00 0.00 64
20260505014017 13 45 11.3 14.5 0.00 0.00 0.00 63
20260505013516 13 170 3.2 6.4 0.00 0.00 0.00 64
20260505013017 13 170 0.0 0.0 0.00 0.00 0.00 68
20260505012518 13 170 3.2 3.2 0.00 0.00 0.00 72
20260505012021 12 170 6.4 6.4 0.00 0.00 0.00 77
20260505011518 12 193 11.3 11.3 0.00 0.00 0.00 83
20260505011017 12 226 17.7 20.9 0.00 0.00 0.00 78
20260505010517 12 226 17.7 20.9 0.00 0.00 0.00 81
20260505010017 12 201 25.7 29.0 0.00 0.00 0.00 79
20260505005518 12 191 20.9 29.0 0.00 0.00 0.00 78
20260505005018 12 182 17.7 25.7 0.00 0.00 0.00 80
20260505004518 12 187 14.5 20.9 0.00 0.00 0.00 81
20260505004017 12 178 14.5 17.7 0.00 0.00 0.00 87
20260505003517 12 162 14.5 20.9 0.00 0.00 0.00 95
20260505003017 12 183 14.5 17.7 0.00 0.00 0.00 88
20260505002517 12 185 11.3 14.5 0.00 0.00 0.00 83
20260505002025 12 190 14.5 20.9 0.00 0.00 0.00 80
20260505001518 12 194 11.3 20.9 0.00 0.00 0.00 80
20260505001018 12 204 14.5 17.7 0.00 0.00 0.00 78
20260505000518 12 169 11.3 14.5 0.00 0.00 0.00 77
20260505000018 12 172 11.3 14.5 0.00 0.00 0.00 71
20260504235517 13 133 14.5 17.7 0.00 0.00 0.00 66
20260504235024 15 115 25.7 29.0 0.00 0.00 0.00 66
20260504234517 15 112 20.9 29.0 0.00 0.00 0.00 65
20260504234017 13 109 20.9 25.7 0.00 0.00 0.00 66
20260504233518 13 107 20.9 25.7 0.00 0.00 0.00 63
20260504233017 15 103 20.9 20.9 0.00 0.00 0.00 62
20260504232517 15 103 17.7 20.9 0.00 0.00 0.00 59
20260504232020 15 102 17.7 20.9 0.00 0.00 0.00 60
20260504231524 15 98 17.7 17.7 0.00 0.00 0.00 59
20260504231016 15 103 17.7 20.9 0.00 0.00 0.00 58
20260504230517 15 100 17.7 17.7 0.00 0.00 0.00 59
20260504230017 15 98 14.5 14.5 0.00 0.00 0.00 58
20260504225517 15 99 17.7 17.7 0.00 0.00 0.00 58
20260504225018 15 85 14.5 14.5 0.00 0.00 0.00 57
20260504224518 15 85 14.5 17.7 0.00 0.00 0.00 55
20260504224017 16 80 11.3 14.5 0.00 0.00 0.00 55
20260504223522 16 69 11.3 11.3 0.00 0.00 0.00 55
20260504223017 16 69 14.5 14.5 0.00 0.00 0.00 56
20260504222516 15 69 14.5 14.5 0.00 0.00 0.00 56
20260504222020 16 69 14.5 14.5 0.00 0.00 0.00 56
20260504221518 16 69 11.3 11.3 0.00 0.00 0.00 55
20260504220518 16 66 11.3 11.3 0.00 0.00 0.00 55
20260504220018 16 66 11.3 11.3 0.00 0.00 0.00 54
20260504215517 16 56 11.3 11.3 0.00 0.00 0.00 54
20260504215018 16 52 11.3 11.3 0.00 0.00 0.00 54
20260504214517 16 43 11.3 11.3 0.00 0.00 0.00 54
20260504214017 16 44 11.3 11.3 0.00 0.00 0.00 54
20260504213517 16 49 11.3 11.3 0.00 0.00 0.00 54
20260504212019 16 76 6.4 6.4 0.00 0.00 0.00 54
20260504211517 16 87 3.2 3.2 0.00 0.00 0.00 53
20260504210518 16 87 3.2 3.2 0.00 0.00 0.00 51
20260504205517 16 87 3.2 3.2 0.00 0.00 0.00 52
20260504205017 16 87 3.2 3.2 0.00 0.00 0.00 53
20260504204017 16 87 6.4 6.4 0.00 0.00 0.00 53
20260504203517 16 87 6.4 6.4 0.00 0.00 0.00 51
20260504203018 16 87 3.2 3.2 0.00 0.00 0.00 51
20260504202517 16 87 3.2 3.2 0.00 0.00 0.00 52
20260504202019 16 87 3.2 3.2 0.00 0.00 0.00 51
20260504201518 16 87 3.2 3.2 0.00 0.00 0.00 52
20260504200518 16 87 6.4 6.4 0.00 0.00 0.00 51
20260504200017 16 87 3.2 3.2 0.00 0.00 0.00 53
20260504195018 16 87 6.4 6.4 0.00 0.00 0.00 52
20260504193518 16 87 3.2 3.2 0.00 0.00 0.00 51
20260504193017 16 87 6.4 6.4 0.00 0.00 0.00 49
20260504192517 16 277 0.0 6.4 0.00 0.00 0.00 48
20260504192021 16 273 3.2 3.2 0.00 0.00 0.00 44
20260504191017 16 273 0.0 0.0 0.00 0.00 0.00 43
20260504185517 16 273 0.0 0.0 0.00 0.00 0.00 44
20260504185018 16 273 0.0 0.0 0.00 0.00 0.00 45
20260504184518 16 273 0.0 0.0 0.00 0.00 0.00 47
20260504184017 16 273 0.0 0.0 0.00 0.00 0.00 49
20260504183517 16 273 0.0 0.0 0.00 0.00 0.00 50
20260504183017 16 273 0.0 0.0 0.00 0.00 0.00 47
20260504182517 16 273 0.0 0.0 0.00 0.00 0.00 48
20260504182022 16 273 0.0 0.0 0.00 0.00 0.00 49
20260504181018 16 273 0.0 0.0 0.00 0.00 0.00 51
20260504180522 16 273 0.0 0.0 0.00 0.00 0.00 50
20260504180018 17 273 0.0 0.0 0.00 0.00 0.00 48
20260504175517 17 273 3.2 3.2 0.00 0.00 0.00 47
20260504175017 17 273 0.0 3.2 0.00 0.00 0.00 49
20260504174518 17 273 0.0 0.0 0.00 0.00 0.00 51
20260504174017 16 273 0.0 3.2 0.00 0.00 0.00 53
20260504173518 17 273 0.0 0.0 0.00 0.00 0.00 53
20260504170518 16 273 0.0 0.0 0.00 0.00 0.00 53
20260504151017 17 256 3.2 6.4 0.00 0.00 0.00 50
20260504150517 17 239 11.3 11.3 0.00 0.00 0.00 50
20260504141017 17 213 3.2 6.4 0.00 0.00 0.00 50
20260504140518 17 251 6.4 6.4 0.00 0.00 0.00 50
20260504130518 17 192 3.2 3.2 0.00 0.00 0.00 50
20260504110517 17 236 0.0 3.2 0.00 0.00 0.00 55
20260504100518 16 119 0.0 3.2 0.00 0.00 0.00 58
20260504081517 12 183 0.0 3.2 0.00 0.00 0.00 69
20260504081018 11 183 6.4 6.4 0.00 0.00 0.00 68
20260504050518 10 85 20.9 25.7 0.00 0.00 0.00 56
20260504050018 10 84 20.9 25.7 0.00 0.00 0.00 57
20260504045517 10 81 20.9 25.7 0.00 0.00 0.00 57
20260504045017 10 76 25.7 25.7 0.00 0.00 0.00 57
20260504044517 10 75 25.7 29.0 0.00 0.00 0.00 56
20260504044018 10 75 25.7 25.7 0.00 0.00 0.00 56
20260504043518 10 76 20.9 25.7 0.00 0.00 0.00 56
20260504043017 10 76 25.7 29.0 0.00 0.00 0.00 56
20260504042517 10 76 25.7 25.7 0.00 0.00 0.00 56
20260504041518 10 78 25.7 25.7 0.00 0.00 0.00 55
20260504041017 10 80 20.9 25.7 0.00 0.00 0.00 56
20260504040517 10 80 20.9 25.7 0.00 0.00 0.00 55
20260504040018 10 78 20.9 25.7 0.00 0.00 0.00 55
20260504035516 10 76 20.9 25.7 0.00 0.00 0.00 55
20260504035018 10 76 20.9 20.9 0.00 0.00 0.00 55
20260504034518 10 79 20.9 20.9 0.00 0.00 0.00 55
20260504034017 10 82 20.9 25.7 0.00 0.00 0.00 55
20260504033518 10 82 20.9 20.9 0.00 0.00 0.00 55
20260504033017 10 81 20.9 20.9 0.00 0.00 0.00 55
20260504032517 10 81 20.9 25.7 0.00 0.00 0.00 55
20260504032019 10 80 20.9 25.7 0.00 0.00 0.00 55
20260504031517 10 85 20.9 25.7 0.00 0.00 0.00 55
20260504031017 10 86 25.7 25.7 0.00 0.00 0.00 55
20260504030517 10 88 25.7 25.7 0.00 0.00 0.00 55
20260504030017 10 88 25.7 29.0 0.00 0.00 0.00 55
20260504025517 10 88 25.7 29.0 0.00 0.00 0.00 54
20260504025018 10 93 25.7 25.7 0.00 0.00 0.00 54
20260504024517 10 91 20.9 25.7 0.00 0.00 0.00 54